Temp
-3 -4 -4 -4 -4 -4 -4 -4 -4 -4 -4 -4 -4 -5 -5 -5 -5 -5 -5 -5 -6 -6 -6 -6 -6 -6 -7 -7 -7 -7 -7 -7 -7 -7 -7 -7 -7 -7 -7 -6 -6 -6
-3 -3 -4 -4 -4 -4 -4 -4 -4 -4 -4 -4 -4 -4 -5 -5 -5 -5 -5 -5 -5 -6 -6 -6 -6 -6 -7 -7 -7 -7 -7 -7 -7 -7 -7 -7 -7 -7 -7 -7 -7 -6
-3 -3 -3 -4 -4 -4 -4 -4 -4 -4 -4 -4 -4 -4 -4 -5 -5 -5 -5 -5 -5 -5 -6 -6 -6 -6 -6 -7 -7 -7 -7 -7 -7 -7 -7 -7 -7 -7 -7 -7 -7 -7
-3 -3 -3 -4 -4 -4 -4 -4 -4 -4 -4 -4 -4 -4 -4 -4 -5 -5 -5 -5 -5 -5 -5 -6 -6 -6 -6 -7 -7 -7 -7 -7 -7 -7 -7 -7 -7 -7 -7 -7 -7 -7
-3 -4 -4 -4 -4 -4 -4 -4 -4 -4 -4 -4 -4 -4 -4 -4 -4 -5 -5 -5 -5 -5 -5 -5 -6 -6 -6 -6 -7 -7 -7 -7 -7 -7 -7 -7 -7 -7 -7 -7 -7 -7
-4 -4 -4 -4 -4 -4 -4 -4 -4 -4 -4 -4 -4 -4 -4 -4 -4 -5 -5 -5 -5 -5 -5 -5 -6 -6 -6 -6 -7 -7 -7 -7 -7 -7 -7 -7 -7 -8 -8 -8 -7 -7
-4 -4 -4 -4 -4 -4 -4 -4 -4 -4 -4 -4 -4 -4 -4 -5 -5 -5 -5 -5 -5 -5 -5 -5 -5 -6 -6 -6 -6 -7 -7 -7 -7 -8 -8 -7 -7 -8 -8 -8 -8 -7
-4 -4 -4 -4 -4 -4 -4 -4 -4 -4 -4 -4 -4 -4 -5 -5 -5 -5 -5 -5 -5 -5 -5 -5 -5 -6 -6 -6 -6 -7 -7 -7 -7 -8 -8 -8 -8 -8 -8 -8 -8 -8
-4 -4 -4 -4 -4 -4 -4 -4 -4 -4 -4 -4 -4 -4 -4 -5 -5 -5 -5 -5 -5 -5 -5 -5 -6 -6 -6 -6 -6 -7 -7 -7 -7 -7 -8 -8 -8 -8 -8 -8 -8 -8
-4 -4 -4 -4 -4 -4 -4 -4 -4 -4 -4 -4 -4 -4 -4 -4 -5 -5 -5 -5 -5 -6 -6 -6 -6 -6 -6 -6 -6 -7 -7 -7 -7 -7 -8 -8 -8 -8 -8 -8 -8 -8
-4 -4 -4 -4 -4 -5 -5 -4 -4 -4 -4 -4 -4 -4 -4 -4 -4 -4 -5 -5 -5 -5 -6 -6 -6 -6 -6 -6 -6 -7 -7 -7 -7 -7 -8 -8 -8 -8 -8 -8 -8 -8
-4 -4 -4 -5 -5 -5 -5 -5 -4 -4 -4 -4 -4 -4 -4 -4 -4 -4 -4 -5 -5 -5 -5 -6 -6 -6 -6 -7 -7 -7 -7 -7 -7 -7 -8 -8 -8 -8 -8 -8 -8 -8
-4 -4 -5 -5 -5 -5 -5 -5 -4 -4 -4 -4 -4 -4 -4 -4 -4 -4 -4 -4 -4 -5 -5 -5 -6 -6 -6 -7 -7 -7 -7 -7 -7 -7 -7 -8 -8 -8 -8 -8 -8 -8
-4 -4 -5 -5 -5 -5 -5 -5 -4 -5 -5 -5 -4 -4 -4 -4 -4 -4 -4 -4 -4 -5 -5 -5 -5 -6 -6 -7 -7 -7 -7 -7 -7 -7 -7 -7 -8 -8 -8 -8 -8 -8
-4 -5 -5 -5 -5 -5 -5 -5 -5 -5 -5 -5 -5 -5 -4 -4 -4 -4 -4 -4 -4 -5 -5 -5 -5 -6 -6 -6 -7 -7 -7 -7 -7 -7 -7 -7 -7 -7 -8 -8 -8 -8
-5 -5 -5 -5 -5 -5 -5 -5 -5 -5 -5 -5 -5 -5 -5 -5 -5 -5 -5 -5 -5 -5 -5 -5 -5 -6 -6 -6 -6 -6 -6 -6 -7 -7 -7 -7 -7 -7 -7 -7 -7 -8
-5 -5 -5 -5 -5 -5 -5 -5 -5 -5 -5 -5 -5 -5 -5 -5 -5 -5 -5 -5 -5 -5 -5 -5 -6 -6 -6 -7 -7 -7 -7 -6 -6 -7 -7 -7 -7 -7 -7 -7 -7 -7
-5 -5 -5 -5 -5 -5 -5 -5 -5 -5 -5 -5 -5 -5 -5 -5 -5 -6 -6 -6 -6 -6 -6 -6 -6 -6 -7 -7 -7 -7 -7 -7 -6 -7 -7 -7 -7 -7 -7 -7 -7 -7
-6 -6 -6 -5 -5 -6 -6 -5 -5 -5 -5 -6 -6 -6 -6 -6 -6 -6 -6 -6 -6 -6 -6 -6 -6 -7 -7 -7 -7 -7 -7 -7 -7 -7 -7 -7 -7 -7 -7 -7 -7 -7
-6 -6 -6 -6 -6 -6 -5 -5 -5 -6 -6 -6 -6 -6 -6 -6 -6 -6 -6 -7 -7 -7 -7 -7 -7 -7 -7 -7 -8 -7 -7 -7 -7 -6 -7 -7 -7 -7 -7 -7 -7 -7
-5 -6 -6 -6 -6 -6 -5 -5 -6 -6 -6 -6 -6 -6 -6 -6 -6 -7 -7 -7 -7 -7 -7 -7 -7 -7 -7 -7 -8 -8 -8 -7 -7 -7 -6 -6 -7 -7 -7 -7 -7 -7
-5 -5 -6 -6 -6 -6 -6 -6 -6 -6 -6 -6 -6 -6 -6 -7 -7 -7 -7 -7 -7 -7 -7 -7 -7 -7 -7 -7 -7 -8 -8 -7 -7 -7 -7 -7 -7 -7 -7 -7 -7 -7
-6 -6 -6 -6 -6 -6 -6 -6 -6 -6 -6 -6 -6 -6 -6 -7 -7 -7 -7 -7 -7 -7 -7 -7 -7 -7 -7 -7 -7 -7 -7 -7 -7 -7 -7 -7 -7 -7 -7 -7 -7 -8
-6 -6 -6 -6 -6 -6 -6 -6 -6 -6 -6 -6 -6 -6 -6 -6 -7 -7 -7 -7 -7 -7 -7 -7 -7 -7 -7 -7 -7 -7 -7 -7 -7 -7 -7 -7 -7 -7 -7 -7 -7 -8
-6 -6 -6 -6 -6 -6 -6 -6 -6 -6 -6 -6 -6 -6 -6 -7 -7 -7 -7 -7 -7 -7 -7 -7 -7 -7 -7 -7 -7 -7 -7 -7 -7 -7 -7 -7 -7 -7 -7 -7 -7 -7
-6 -6 -7 -7 -6 -6 -6 -6 -6 -6 -6 -7 -7 -7 -7 -7 -7 -7 -7 -7 -7 -7 -7 -7 -7 -7 -7 -7 -7 -7 -7 -7 -7 -7 -7 -7 -7 -7 -8 -7 -7 -7
Height
5926 5927 5929 5929 5931 5932 5933 5935 5935 5936 5937 5938 5938 5939 5940 5941 5941 5942 5942 5942 5943 5943 5943 5943 5943 5943 5943 5943 5943 5943 5943 5942 5942 5942 5942 5942 5942 5942 5942 5941 5940 5940
5925 5926 5928 5929 5930 5932 5933 5934 5935 5935 5936 5937 5938 5939 5939 5940 5940 5941 5941 5942 5942 5942 5942 5942 5942 5943 5943 5943 5943 5943 5942 5942 5942 5942 5942 5942 5942 5942 5941 5941 5940 5940
5924 5926 5927 5929 5930 5931 5932 5933 5934 5935 5935 5936 5937 5938 5938 5939 5939 5940 5940 5940 5941 5941 5941 5941 5941 5942 5942 5942 5942 5942 5942 5942 5942 5941 5941 5941 5941 5941 5941 5941 5940 5940
5924 5925 5927 5928 5929 5930 5931 5932 5933 5934 5934 5935 5935 5936 5937 5938 5938 5938 5939 5939 5939 5940 5940 5940 5940 5941 5941 5941 5942 5942 5942 5942 5941 5941 5940 5940 5941 5941 5941 5941 5940 5940
5923 5924 5925 5927 5928 5930 5931 5932 5932 5932 5933 5933 5934 5935 5935 5936 5937 5937 5937 5938 5938 5938 5939 5939 5939 5939 5940 5940 5941 5941 5941 5941 5941 5941 5940 5940 5940 5940 5940 5940 5940 5939
5921 5923 5924 5926 5927 5928 5929 5930 5931 5931 5932 5932 5933 5933 5934 5934 5935 5935 5935 5936 5936 5937 5937 5937 5938 5938 5938 5938 5939 5940 5940 5940 5940 5940 5940 5939 5939 5939 5939 5940 5939 5939
5920 5921 5923 5924 5925 5926 5927 5928 5929 5930 5930 5931 5931 5931 5932 5932 5933 5933 5933 5934 5934 5935 5935 5936 5936 5936 5936 5937 5937 5938 5939 5939 5939 5939 5939 5939 5938 5938 5938 5938 5939 5938
5918 5920 5921 5923 5924 5925 5926 5926 5927 5928 5928 5929 5929 5930 5930 5930 5931 5931 5931 5932 5932 5933 5933 5934 5935 5935 5935 5935 5936 5936 5937 5938 5938 5938 5938 5938 5938 5937 5937 5937 5937 5937
5916 5918 5920 5921 5922 5923 5924 5925 5925 5926 5927 5927 5928 5928 5928 5929 5929 5929 5929 5930 5930 5931 5931 5932 5933 5933 5933 5934 5934 5934 5935 5936 5936 5937 5937 5937 5937 5937 5936 5936 5936 5936
5915 5917 5918 5920 5921 5922 5922 5923 5924 5924 5925 5926 5926 5927 5927 5927 5927 5927 5927 5928 5928 5929 5929 5930 5931 5931 5931 5932 5932 5933 5933 5933 5934 5935 5935 5935 5935 5935 5935 5935 5935 5935
5914 5915 5916 5918 5918 5919 5920 5921 5922 5923 5923 5924 5925 5925 5925 5925 5925 5925 5925 5926 5926 5926 5927 5927 5928 5929 5929 5929 5930 5931 5931 5931 5932 5932 5933 5933 5933 5933 5933 5933 5933 5933
5912 5913 5914 5915 5916 5917 5918 5918 5919 5921 5921 5922 5923 5923 5924 5924 5924 5923 5924 5924 5924 5924 5925 5925 5925 5926 5927 5927 5928 5928 5929 5929 5929 5929 5930 5931 5931 5931 5931 5931 5931 5931
5910 5911 5912 5913 5913 5914 5915 5916 5917 5918 5919 5920 5920 5921 5922 5922 5922 5922 5922 5922 5922 5922 5922 5923 5923 5923 5924 5925 5925 5926 5926 5926 5926 5926 5927 5928 5928 5928 5929 5929 5929 5929
5908 5908 5909 5910 5911 5912 5913 5914 5915 5916 5917 5917 5918 5919 5919 5920 5920 5920 5920 5920 5920 5920 5920 5921 5921 5922 5922 5923 5923 5923 5924 5924 5924 5924 5924 5925 5925 5926 5926 5927 5927 5928
5905 5906 5907 5908 5908 5910 5911 5912 5912 5913 5914 5915 5915 5916 5917 5917 5918 5918 5918 5919 5919 5919 5919 5919 5920 5920 5920 5921 5921 5921 5921 5922 5922 5922 5922 5922 5923 5923 5924 5924 5925 5926
5902 5903 5904 5905 5906 5907 5908 5909 5910 5910 5911 5912 5913 5914 5914 5915 5916 5916 5917 5917 5917 5918 5918 5918 5918 5919 5919 5919 5919 5919 5919 5920 5920 5920 5920 5920 5921 5922 5922 5922 5922 5923
5900 5900 5901 5902 5903 5904 5905 5906 5907 5908 5909 5910 5911 5912 5912 5913 5913 5914 5915 5915 5916 5916 5917 5917 5917 5917 5918 5918 5918 5918 5918 5918 5918 5919 5919 5919 5919 5920 5920 5920 5920 5921
5897 5898 5898 5900 5901 5902 5903 5904 5905 5906 5907 5908 5909 5910 5910 5911 5911 5912 5913 5913 5914 5915 5915 5916 5916 5916 5916 5917 5917 5916 5916 5916 5916 5917 5917 5918 5918 5918 5918 5919 5919 5919
5895 5895 5896 5897 5898 5899 5901 5902 5903 5904 5905 5906 5907 5907 5908 5909 5909 5910 5910 5911 5912 5913 5913 5914 5915 5915 5915 5915 5915 5915 5915 5915 5915 5915 5916 5916 5916 5916 5917 5917 5917 5917
5893 5893 5894 5894 5896 5897 5898 5899 5901 5902 5903 5904 5904 5905 5906 5907 5907 5908 5908 5909 5910 5911 5912 5913 5913 5914 5914 5914 5914 5914 5913 5913 5913 5913 5914 5915 5915 5915 5915 5915 5915 5915
5891 5892 5892 5892 5893 5894 5896 5897 5898 5899 5900 5902 5902 5903 5904 5905 5905 5906 5907 5908 5908 5909 5910 5911 5912 5912 5913 5913 5913 5912 5911 5911 5911 5911 5912 5913 5913 5913 5913 5913 5913 5912
5889 5889 5890 5890 5891 5892 5893 5895 5896 5897 5898 5899 5900 5901 5902 5903 5904 5904 5905 5906 5906 5907 5908 5909 5910 5910 5911 5911 5911 5911 5910 5909 5909 5909 5909 5910 5911 5911 5911 5911 5910 5910
5886 5887 5887 5888 5889 5890 5891 5892 5893 5894 5895 5896 5898 5899 5900 5901 5902 5902 5903 5904 5905 5905 5906 5907 5908 5908 5908 5909 5909 5909 5908 5907 5907 5906 5906 5907 5908 5908 5908 5908 5907 5907
5883 5884 5884 5885 5886 5887 5888 5890 5890 5892 5893 5894 5895 5896 5897 5898 5899 5900 5901 5901 5902 5903 5904 5904 5905 5905 5905 5906 5906 5906 5906 5906 5905 5904 5903 5904 5904 5904 5904 5904 5904 5903
5881 5882 5882 5883 5884 5885 5886 5887 5888 5889 5891 5892 5892 5893 5894 5895 5896 5897 5898 5899 5899 5900 5901 5902 5902 5902 5902 5902 5902 5902 5902 5902 5902 5901 5900 5900 5900 5899 5899 5899 5899 5899
5878 5880 5880 5881 5882 5882 5883 5884 5886 5887 5888 5889 5890 5890 5891 5892 5893 5894 5895 5896 5896 5897 5897 5898 5898 5898 5899 5899 5899 5898 5898 5897 5897 5897 5897 5897 5895 5894 5894 5894 5894 5894
Wind_Speed
18 17 18 19 18 16 15 15 14 14 14 14 14 13 12 12 11 11 11 10 10 10 10 8 7 7 7 6 6 6 6 6 6 6 6 7 8 9 9 8 8 8
18 18 18 18 18 17 16 15 15 14 14 14 14 14 14 14 13 12 12 11 11 11 12 11 9 8 7 7 7 6 6 6 7 7 6 7 7 8 9 8 7 8
18 17 17 17 17 17 17 16 15 14 14 14 14 14 14 15 15 14 14 13 13 12 13 12 11 9 8 8 7 7 7 7 7 8 7 7 7 7 8 8 7 6
17 16 16 16 16 16 16 16 16 16 15 15 14 14 14 15 15 16 16 15 14 14 14 14 13 11 10 9 9 8 8 8 7 8 9 8 7 7 8 8 7 6
17 16 15 15 14 14 14 15 16 16 17 16 15 15 15 15 16 17 17 17 16 16 15 15 14 14 12 11 10 10 10 9 9 9 10 9 9 8 8 9 9 8
17 16 15 14 13 13 13 14 15 16 16 16 16 15 15 16 16 17 18 18 18 18 17 16 16 15 15 13 12 11 11 11 10 10 11 11 10 10 9 10 10 10
18 17 16 15 15 15 15 15 16 16 16 16 17 17 17 17 18 18 19 19 19 19 19 18 17 17 17 16 15 14 13 12 12 12 12 12 12 11 11 11 11 11
19 18 17 17 16 16 16 17 17 17 18 18 18 18 19 19 19 20 20 20 20 20 20 20 19 19 19 18 17 17 15 14 13 13 14 13 13 13 13 12 12 13
19 18 18 17 17 17 18 18 18 19 19 19 19 19 19 19 19 20 20 20 21 21 21 21 21 21 21 20 19 19 18 16 15 15 15 15 14 14 15 14 14 14
18 17 17 17 17 18 19 19 20 20 19 19 18 18 17 17 18 18 19 19 20 21 22 22 22 21 22 22 21 21 20 19 18 16 17 17 17 16 16 15 15 15
17 17 17 17 17 18 19 20 20 19 18 17 16 16 16 16 17 17 17 18 19 20 21 22 23 22 23 23 22 22 22 22 21 19 18 18 19 18 17 16 16 17
17 17 17 18 18 19 19 20 20 19 18 17 16 16 15 15 15 16 16 16 17 19 19 21 23 23 23 23 23 23 23 23 23 22 21 19 19 20 19 18 17 18
17 18 19 19 19 20 20 20 20 19 17 17 17 16 14 13 14 14 14 14 15 17 18 19 21 22 23 23 24 24 24 24 25 25 24 22 21 21 21 20 19 19
18 20 20 21 21 21 21 20 20 19 18 18 17 16 14 13 13 13 13 13 13 15 17 17 18 20 22 23 23 24 24 24 25 25 25 23 22 21 22 21 20 20
19 20 21 22 22 22 21 21 20 20 19 19 18 16 15 14 13 12 12 12 12 13 14 15 15 17 19 20 21 22 22 21 22 23 23 22 21 21 22 22 21 21
19 20 21 22 23 23 22 22 22 21 20 20 18 17 16 15 13 12 12 12 12 12 12 12 13 14 15 16 17 17 18 17 17 18 20 20 19 19 21 22 23 22
18 19 21 22 24 24 24 23 23 22 21 20 19 17 17 16 14 13 12 12 12 10 10 10 11 12 13 14 15 15 16 17 16 16 17 19 19 19 19 21 22 23
16 18 19 21 24 25 24 23 23 22 21 20 19 18 18 16 15 14 13 13 11 10 9 9 9 11 11 12 13 14 15 16 16 16 16 17 18 19 19 20 21 23
16 16 17 19 21 24 24 23 23 22 21 20 19 19 19 17 16 15 14 13 11 10 10 9 10 10 10 10 11 13 15 16 16 16 16 16 17 18 19 20 21 22
18 16 16 17 19 22 23 23 23 22 21 21 21 20 19 18 17 17 15 15 14 13 13 12 12 12 12 11 12 14 16 18 19 18 18 17 18 19 20 21 23 24
19 18 18 18 19 21 22 22 22 22 22 22 21 21 20 20 20 19 18 17 17 17 16 15 15 15 15 15 15 17 19 22 22 22 20 20 20 21 22 24 25 27
19 19 20 20 20 20 20 20 21 22 23 23 22 21 21 22 22 21 20 20 20 20 20 19 18 19 19 18 19 20 22 25 25 25 24 22 22 23 24 25 26 27
21 19 20 21 21 20 19 19 21 23 24 24 23 22 22 22 22 22 22 22 22 22 22 22 22 23 23 22 23 24 25 27 29 29 28 26 25 25 26 27 27 29
21 17 17 19 20 19 18 19 22 23 24 24 23 22 21 21 20 21 21 21 21 21 22 23 24 26 27 26 26 26 27 28 30 32 32 30 29 29 29 29 29 30
23 17 15 15 16 17 18 19 21 22 22 22 22 21 21 20 19 19 19 20 21 22 23 24 26 29 30 30 30 30 30 30 30 32 32 32 33 33 33 33 33 33
25 19 16 14 14 14 16 17 18 19 20 20 21 21 21 21 20 20 20 21 22 23 24 25 26 28 29 31 33 34 34 34 33 33 32 33 34 36 37 37 37 36
Wind_Direction
228 226 228 234 237 238 239 238 237 236 236 237 239 243 246 249 250 251 255 260 266 272 279 287 299 315 331 343 345 336 324 320 319 315 312 312 314 322 331 339 343 343
232 230 230 235 240 243 245 244 243 241 240 240 241 243 246 249 252 254 257 259 263 268 273 279 286 295 309 326 336 338 328 315 310 308 306 305 306 313 320 330 342 345
235 235 234 234 238 242 247 250 250 250 250 248 248 248 249 250 253 255 257 260 261 264 268 273 279 284 292 304 317 328 330 320 307 301 300 300 297 301 308 314 326 339
241 243 242 240 239 241 246 250 254 257 257 257 257 256 256 255 255 256 258 259 260 261 264 269 274 278 281 287 297 309 320 323 313 300 296 296 293 291 294 298 303 311
246 248 249 249 247 245 245 248 251 254 258 262 265 265 265 262 260 260 260 259 260 261 263 266 269 273 276 278 282 290 301 311 315 307 297 292 291 288 286 287 288 289
248 250 251 251 251 248 248 248 250 253 257 262 266 267 268 267 266 264 264 263 262 262 264 265 266 270 274 276 277 280 285 294 305 309 302 293 288 286 283 281 281 281
246 247 246 246 247 249 251 253 254 256 258 260 263 265 266 267 267 266 266 267 265 265 265 265 265 266 270 274 276 277 278 281 289 299 302 298 291 285 282 280 279 278
241 241 241 243 247 251 255 257 259 259 260 262 264 266 267 268 268 268 267 268 268 267 267 267 267 266 267 270 274 276 277 277 278 284 292 298 296 288 282 280 280 278
239 240 242 246 250 254 257 258 260 261 263 265 266 267 270 271 271 270 269 267 267 268 268 268 268 268 267 267 270 274 277 278 277 276 280 288 294 292 285 281 279 278
239 242 245 251 255 258 260 260 261 262 263 264 265 268 271 273 273 272 271 269 267 266 267 268 267 266 268 269 269 272 276 278 278 277 276 279 285 290 289 283 278 276
241 245 250 255 258 260 262 263 264 265 264 263 263 266 270 272 273 273 272 271 269 267 265 266 267 266 267 269 269 270 274 277 278 278 277 276 278 283 286 284 278 274
245 249 252 255 258 260 262 266 267 266 264 262 263 266 269 272 272 273 272 270 269 270 267 265 265 266 266 267 269 270 272 275 278 278 277 275 273 275 279 281 278 274
251 252 253 253 255 259 262 266 268 268 265 262 263 267 270 270 269 270 273 272 269 270 270 267 265 265 266 266 268 270 271 274 277 278 277 275 272 270 272 275 276 274
251 250 251 251 253 257 261 265 267 266 263 261 264 268 270 269 266 266 271 274 270 267 270 271 268 266 266 267 269 272 273 274 276 277 278 276 273 269 268 270 272 274
248 248 248 248 251 255 259 261 263 261 258 259 263 266 268 268 268 267 268 271 270 266 268 272 271 268 268 269 271 273 274 275 275 277 279 279 275 272 270 270 271 271
248 248 246 245 247 251 254 256 257 257 256 258 261 264 267 270 272 271 269 268 270 269 268 270 269 266 266 267 269 272 276 279 280 281 284 285 284 281 279 279 278 277
251 251 246 243 243 246 249 252 254 255 256 258 262 266 269 271 272 271 268 267 268 269 268 266 263 262 263 266 270 274 279 283 285 284 286 289 292 291 288 287 287 287
253 254 251 245 242 243 246 250 253 255 257 260 264 267 268 269 269 268 268 267 267 267 262 258 255 257 261 266 271 276 279 282 285 286 288 291 293 295 295 293 293 293
252 256 257 251 245 245 247 250 254 256 257 259 262 263 265 266 266 266 266 265 263 259 255 252 251 252 255 262 270 277 280 282 283 285 289 294 297 299 301 302 302 302
252 255 258 255 250 249 251 254 256 256 255 255 257 260 263 263 262 261 259 258 257 256 254 252 251 249 250 256 264 271 276 278 280 282 287 293 297 299 302 305 308 309
253 249 251 252 251 252 255 257 257 255 253 253 254 257 258 257 257 256 255 255 256 257 258 255 251 249 250 253 260 268 273 276 279 282 286 289 293 296 300 304 306 307
258 248 246 248 248 250 254 258 257 254 252 251 252 254 254 254 255 255 255 254 255 258 261 261 258 254 251 252 256 264 271 275 277 281 284 287 290 293 296 299 301 302
267 255 247 245 245 246 248 251 252 250 249 252 254 254 254 253 252 253 255 257 259 263 265 266 265 263 260 259 259 261 266 271 276 281 285 289 291 291 292 293 294 294
270 261 251 246 242 239 239 243 247 249 251 254 256 256 254 253 253 255 260 264 267 269 269 270 271 272 274 275 275 273 272 273 275 280 285 290 291 290 289 287 287 288
265 255 248 250 243 235 235 240 245 249 251 254 257 259 260 259 259 261 265 270 273 274 274 274 274 275 277 279 281 281 280 278 277 279 282 286 288 287 287 286 286 286
259 248 243 248 245 238 237 238 242 246 250 255 259 262 263 263 265 268 270 271 273 274 275 276 277 278 277 276 275 275 275 276 276 278 281 282 282 283 284 286 287 286